Regional Weather Roundup
Issued by NWS Newport/Morehead, NC

Current Version | Previous Version | Text Only | Print | Product List | Glossary On
Versions: 1 2 3 4 5 6 7 8 9 10 11 12 13 14 15 16 17 18 19 20 21 22 23 24 25 26 27 28 29 30 31 32 33 34 35 36 37 38 39 40 41 42 43 44 45 46 47 48 49 50
000
ASUS42 KMHX 200613
RWRMHX
WEATHER ROUNDUP FOR EASTERN NORTH CAROLINA
NATIONAL WEATHER SERVICE NEWPORT/MOREHEAD CITY NC
100 AM EST MON NOV 20 2017

NOTE: "FAIR" INDICATES FEW OR NO CLOUDS BELOW 12,000 FEET
WITH NO SIGNIFICANT WEATHER AND/OR OBSTRUCTIONS TO VISIBILITY

NCZ015>017-031-032-045>047-102-103-200700-
NORTH COAST

CITY           SKY/WX    TMP DP  RH WIND       PRES   REMARKS
EDENTON        CLEAR     43  31  61 CALM      30.06S
ELIZABETH CITY CLEAR     39  31  72 W12       30.05R
KITTY HAWK     CLEAR     45  31  56 NW6       30.02R
MANTEO         CLEAR     46  32  58 NW9G17    30.04R

$$

NCZ045>047-081-094-103-104-200700-
CENTRAL COAST

CITY           SKY/WX    TMP DP  RH WIND       PRES   REMARKS
FRISCO         CLEAR     48  33  56 NW14G25   30.04R

$$

NCZ095-097-098-100-101-200700-
SOUTHERN COAST

CITY           SKY/WX    TMP DP  RH WIND       PRES   REMARKS
BEAUFORT       CLEAR     45  30  55 N10G21    30.08R
CEDAR ISLAND   NOT AVBL
JACKSONVILLE   NOT AVBL
PINEY ISLAND   NOT AVBL
WILMINGTON     PTCLDY    42  31  64 CALM      30.11R


$$

NCZ011>013-027>030-043-044-078>080-089-090>093-098-200700-
COASTAL PLAIN

CITY           SKY/WX    TMP DP  RH WIND       PRES   REMARKS
AHOSKIE        PTCLDY    35  27  74 CALM      30.07R
CLINTON        PTCLDY    39  32  74 CALM      30.11S
ELIZABETHTOWN  NOT AVBL
GOLDSBORO      PTCLDY    39  27  61 W5        30.07F
GREENVILLE     PTCLDY    36  30  80 CALM      30.10R
HAVELOCK       NOT AVBL
KENANSVILLE    PTCLDY    37  30  75 CALM      30.10S
KINSTON        PTCLDY    36  29  75 CALM      30.09S
NEW BERN       CLEAR     39  29  67 NW3       30.10R
RICHLANDS      CLEAR     35  30  82 CALM      30.10R
ROCKY MOUNT    PTCLDY    36  29  75 CALM      30.08S
WASHINGTON     PTCLDY    40  28  63 CALM      30.08S
WHITEVILLE     PTCLDY    43  28  55 N3        30.11S

$$

AMZ130-135-150-152-154-156-158-170-250-252-270-ANZ085-086-088-633-658-670-200700-
MARINE OBSERVATIONS

STATION/POSITION TIME  TEMP    WIND        PRES    WAVE   SWELL
                       AIR SEA DIR/SP/G            HT/PER HT/PER
                 (UTC) (F)     (DEG/KT/KT) (MB)    (FT/S) (FT/S)
CHESAPEAKE LIGHT NOT AVBL
64 E VA BEACH    0550   52 61  300/ 19/ 25 1015.6    8/ 8   2/11
DUCK             0542      60  310/ 15/ 20 1016.4
2 E DUCK         0600      61                N/A     5/ 6
OREGON INLET     0542      57  300/ 15/ 21 1016.6
13E OREGON INLT  0548      63                N/A     6/ 6   3/13
HATTERAS CG      0542      61  320/ 22/ 26 1016.9
DIAMOND BUOY     0600   52 68  310/ 19/ 25 1017.1
CAPE LOOKOUT     0600          330/ 18/ 21 1018.7
BEAUFORT LAB     0542      60  340/  8/ 18 1018.6
30 SE NEW RVR IN 0508   53 68  360/ 17/ 23 1018.1
30 SE NEW RVR IN 0600      68                N/A     6/ 5
27 SE WRIGHTSVLE 0508   54 68  360/ 21/ 31 1018.1
5 SE WRIGHTSVLE  0508   51 64  360/ 16/ 23 1018.3
225 S CAPE HAT   0550   68 76  340/ 19/ 23 1014.2    8/ 9   3/ 9
41 SE CHARLESTON 0550   61 73   10/ 17/ 21 1018.1    4/ 5

$$



USA.gov is the U.S. government's official web portal to all federal, state and local government web resources and services.